Location: Biała Podlaska
(52.0233°N, 23.1168°E)
Time: 23:20:10
(UTC+02:00)

ISS - Visible Passes

Search period start: 22 September 2018 00:00
Search period end: 02 October 2018 00:00
Orbit: 403 x 408 km, 51.6° (Epoch: 23 September)

Date Brightness Start Highest point End Pass type
(mag) Time Alt. Az. Time Alt. Az. Time Alt. Az.
22 Sep -1.3 20:28:27 10° SSW 20:28:53 13° SSW 20:28:53 13° SSW visible
23 Sep -2.1 19:37:19 10° S 19:39:32 17° SE 19:39:38 17° SE visible
23 Sep -0.8 21:12:19 10° WSW 21:12:21 10° WSW 21:12:21 10° WSW visible
24 Sep -2.7 20:20:37 10° SW 20:22:54 33° SSW 20:22:54 33° SSW visible
25 Sep -2.7 19:29:04 10° SSW 19:31:58 29° SSE 19:33:18 21° ESE visible
25 Sep -1.4 21:04:55 10° WSW 21:05:59 19° WSW 21:05:59 19° WSW visible
26 Sep -3.8 20:13:03 10° WSW 20:16:15 61° S 20:16:15 61° S visible
27 Sep -3.4 19:21:17 10° SW 19:24:27 46° SSE 19:26:26 20° E visible
27 Sep -1.7 20:57:32 10° W 20:59:06 26° W 20:59:06 26° W visible
28 Sep -4.0 20:05:36 10° WSW 20:08:55 80° S 20:09:12 70° ESE visible
29 Sep -3.8 19:13:41 10° WSW 19:16:59 67° SSE 19:19:14 18° E visible
29 Sep -1.9 20:50:08 10° W 20:51:54 29° W 20:51:54 29° W visible
30 Sep -3.9 19:58:09 10° W 20:01:29 86° S 20:01:54 65° E visible
01 Oct -3.8 19:06:12 10° W 19:09:30 83° S 19:11:53 18° E visible
01 Oct -2.0 20:42:41 10° W 20:44:32 30° W 20:44:32 30° W visible
